Gilgo Beach, New York, United States
Lat: 40.62N, Lon: 73.4W
Wx Zone: NYZ080
Local Info
Past Weather Observations for Today

NOTE: This archive is for the closest National Weather Service station to Gilgo Beach. Information may differ from the station used for current weather conditions.

Click here for Long-term Archive

Time Weather Temperature Dewpoint Humidity Pressure Winds Precip Visibility
17:48
Mostly Cloudy
77°F / 25°C 73°F / 23°C 89% 29.83 in
(1010 mb)
SSE 10.4 mph
(SSE 17 kph)
0.27 in
(6.86 mm)
10SM
17:43
Mostly Cloudy
77°F / 25°C 73°F / 23°C 89% 29.83 in
(1010 mb)
S 8.1 mph
(S 13 kph)
0.27 in
(6.86 mm)
10SM
17:34
Mostly Cloudy
75°F / 24°C 73°F / 23°C 94% 29.83 in
(1010 mb)
S 6.9 mph
(S 11 kph)
0.27 in
(6.86 mm)
10SM
17:22
Overcast
Light Rain
75°F / 24°C 73°F / 23°C 94% 29.83 in
(1010 mb)
S 5.8 mph
(S 9 kph)
0.27 in
(6.86 mm)
3SM
17:16
Overcast
Light Rain
75°F / 24°C 73°F / 23°C 94% 29.83 in
(1010 mb)
S 4.6 mph
(S 7 kph)
0.26 in
(6.60 mm)
3SM
17:09
Overcast
Light Rain
75°F / 24°C 73°F / 23°C 94% 29.83 in
(1010 mb)
S 3.5 mph
(S 6 kph)
0.26 in
(6.60 mm)
3SM
17:07
Overcast
Light Rain
75°F / 24°C 73°F / 23°C 94% 29.83 in
(1010 mb)
S 4.6 mph
(S 7 kph)
0.26 in
(6.60 mm)
1 1/4SM
17:04
Overcast
Light Rain
75°F / 24°C 73°F / 23°C 94% 29.83 in
(1010 mb)
SSE 3.5 mph
(SSE 6 kph)
0.26 in
(6.60 mm)
1/2SM
16:55
Overcast
Heavy Rain
75°F / 24°C 73°F / 23°C 94% 29.86 in
(1011 mb)
SSW 6.9 mph
(SSW 11 kph)
0.09 in
(2.29 mm)
3/4SM
16:53
Overcast
Thunder Storms
75°F / 24°C 73°F / 23°C 94% 29.86 in
(1011 mb)
W 6.9 mph
(W 11 kph)
0.33 in
(8.38 mm)
1SM
16:37
Mostly Cloudy
Thunder Storms
77°F / 25°C 72°F / 22°C 83% 29.83 in
(1010 mb)
NW 13.8 mph
(NW 22 kph)
0.16 in
(4.06 mm)
1 3/4SM
16:33
Mostly Cloudy
Thunder Storms
79°F / 26°C 73°F / 23°C 84% 29.83 in
(1010 mb)
WNW 17.3 mph
(WNW 28 kph)
0.10 in
(2.54 mm)
3SM
16:15
Partly Cloudy
Thunder Storms
81°F / 27°C 72°F / 22°C 74% 29.8 in
(1009 mb)
SW 19.6 mph
(SW 32 kph)
- 10SM
15:53
Partly Cloudy
81°F / 27°C 72°F / 22°C 74% 29.8 in
(1009 mb)
SSE 19.6 mph
(SSE 32 kph)
- 10SM
15:03
Mostly Cloudy
81°F / 27°C 72°F / 22°C 74% 29.8 in
(1009 mb)
SSE 21.9 mph
(SSE 35 kph)
- 10SM
14:53
Mostly Cloudy
Thunder Storms
81°F / 27°C 72°F / 22°C 74% 29.83 in
(1010 mb)
SSE 20.7 mph
(SSE 33 kph)
- 10SM
14:07
Mostly Cloudy
Thunder Storms
82°F / 28°C 72°F / 22°C 70% 29.86 in
(1011 mb)
SW 20.7 mph
(SW 33 kph)
- 10SM
13:53
Mostly Cloudy
82°F / 28°C 72°F / 22°C 70% 29.83 in
(1010 mb)
SW 21.9 mph
(SW 35 kph)
- 10SM
12:53
Overcast
82°F / 28°C 73°F / 23°C 74% 29.86 in
(1011 mb)
SW 20.7 mph
(SW 33 kph)
- 10SM
11:53
Partly Cloudy
84°F / 29°C 75°F / 24°C 74% 29.89 in
(1012 mb)
SSE 17.3 mph
(SSE 28 kph)
- 10SM
11:26
Partly Cloudy
82°F / 28°C 73°F / 23°C 74% 29.89 in
(1012 mb)
SW 16.1 mph
(SW 26 kph)
- 10SM
10:53
Mostly Cloudy
81°F / 27°C 75°F / 24°C 84% 29.92 in
(1013 mb)
SSE 16.1 mph
(SSE 26 kph)
0.02 in
(0.51 mm)
10SM
10:09
Overcast
Light Rain
77°F / 25°C 73°F / 23°C 89% 29.92 in
(1013 mb)
S 15 mph
(S 24 kph)
0.02 in
(0.51 mm)
9SM
09:56
Overcast
Rain
77°F / 25°C 75°F / 24°C 94% 29.92 in
(1013 mb)
SSE 12.7 mph
(SSE 20 kph)
0.02 in
(0.51 mm)
2 1/2SM
09:48
Overcast
Rain
77°F / 25°C 73°F / 23°C 89% 29.92 in
(1013 mb)
SW 10.4 mph
(SW 17 kph)
0.05 in
(1.27 mm)
2 1/2SM
09:47
Overcast
Rain
77°F / 25°C 73°F / 23°C 89% 29.92 in
(1013 mb)
SW 10.4 mph
(SW 17 kph)
0.05 in
(1.27 mm)
2 1/2SM
09:15
Overcast
79°F / 26°C 73°F / 23°C 84% 29.92 in
(1013 mb)
SW 10.4 mph
(SW 17 kph)
0.01 in
(0.25 mm)
10SM
09:00
Overcast
Rain
79°F / 26°C 73°F / 23°C 84% 29.92 in
(1013 mb)
SW 11.5 mph
(SW 19 kph)
0.01 in
(0.25 mm)
4SM
08:53
Overcast
Light Rain
79°F / 26°C 73°F / 23°C 84% 29.92 in
(1013 mb)
SW 11.5 mph
(SW 19 kph)
0.00 in
(0.00 mm)
6SM
08:49
Overcast
Light Rain
79°F / 26°C 73°F / 23°C 84% 29.92 in
(1013 mb)
SW 12.7 mph
(SW 20 kph)
0.00 in
(0.00 mm)
7SM
08:13
Mostly Cloudy
81°F / 27°C 72°F / 22°C 74% 29.92 in
(1013 mb)
SSW 11.5 mph
(SSW 19 kph)
- 10SM
07:53
Partly Cloudy
81°F / 27°C 72°F / 22°C 74% 29.92 in
(1013 mb)
SW 10.4 mph
(SW 17 kph)
- 10SM
06:53
Partly Cloudy
79°F / 26°C 72°F / 22°C 79% 29.95 in
(1014 mb)
SW 11.5 mph
(SW 19 kph)
- 10SM
05:53
Partly Cloudy
77°F / 25°C 72°F / 22°C 83% 29.95 in
(1014 mb)
SW 11.5 mph
(SW 19 kph)
- 10SM
04:53
Partly Cloudy
75°F / 24°C 72°F / 22°C 89% 29.92 in
(1013 mb)
SW 6.9 mph
(SW 11 kph)
- 10SM
03:53
Clear
75°F / 24°C 72°F / 22°C 89% 29.92 in
(1013 mb)
SW 6.9 mph
(SW 11 kph)
- 10SM
02:53
Clear
77°F / 25°C 72°F / 22°C 83% 29.95 in
(1014 mb)
SW 8.1 mph
(SW 13 kph)
- 10SM
01:53
Clear
77°F / 25°C 72°F / 22°C 83% 29.95 in
(1014 mb)
SW 9.2 mph
(SW 15 kph)
- 10SM
00:53
Clear
79°F / 26°C 72°F / 22°C 79% 29.95 in
(1014 mb)
SW 8.1 mph
(SW 13 kph)
- 10SM
Time Weather Temperature Dewpoint Humidity Pressure Winds Precip Visibility


Weather for websites

WeatherForYou.com, LLC is not responsible for any damages or problems caused by this service. Current weather conditions are obtained from the closest station including government and personal stations which may have varying degrees of accuracy. Weather forecasts are derived from the NOAA NDFD. Like all things, this site belongs to Jesus Christ... He just trusts us to maintain it. If you have any questions or comments email webmaster@weatherforyou.com

Copyright © 2015, WeatherForYou.com LLC. All rights reserved.